国际通讯卫星 NEW DAWN星 (INTELSAT NEW DAWN)

导读

INTELSAT NEW DAWN(后称Intelsat 28,中文译名为“新黎明”),由国际通信卫星组织(ITSO)相关运营,于2011年4月22日发射。卫星定位于东经33度地球同步轨道,是首颗非洲私营部门参与运营的通信卫星,搭载C/Ku波段转发器,覆盖非洲、欧洲及中东部分区域,为非洲提供电视与宽带通信服务,设计寿命15年以上,发射后曾出现天线部署故障,缩短了部分使用寿命。

Basic Information
目录编号:
37392
目录名称:
INTELSAT NEW DAWN
国际标识:
2011-016A
轨道中心:
EARTH
卫星名称:
国际通讯卫星 NEW DAWN星
卫星全名:
国际通讯卫星 NEW DAWN星 (INTELSAT NEW DAWN)
卫星状态:
在轨 (已飞行5531 天)
发射日期:
2011-04-22 UTC
国别 :
(ITSO)
星等 :
--
Orbit Information
数据来源 国际轨道数据 AOE轨道数据
星历时间 2026-06-12T14:12:12+0800
21小时前
查看轨道信息
2026-06-12T13:00:00+0800
22小时前
查看轨道信息
半长轴 42164.981km 42164.868km
偏心率 0.0003639 0.0003693
轨道倾角 1.793° 1.793°
近地点辐角 3.555° 3.724°
升交点赤经 82.679° 82.680°
平近点角 235.704° 217.438°
近地点 35771.5km 35771.159km
远地点 35802.188km 35802.303km
周期 1436.110分钟 1436.104分钟
每日圈数 1.002709 1.002713
Detailed Information
卫星平台:
Star-2.4
平衡模式:
三轴稳定
覆盖范围:
全球
运营商:
国际卫星通信公司
运营商所在国:
美国
制造商(研发单位):
轨道ATK公司
制造商所在国:
美国
使用方式:
暂无
Satellite Introduction
从1965年4月至1984年3月,国际通信卫星组织发射了5代、6种不同性能的卫星共计35颗,除6颗卫星因运载火箭和远地点发动机故障而发射失败外,其余29颗卫星均被送到了预定的静止轨道位置。1984年8月前后,国际通信卫星组织利用部署在大西洋、太平洋、印度洋上空的15颗国际通信卫星,为遍布世界各地170多个国家或地区提供电话、电传、电报、电视和数据传输等电信业务;该卫星仍在工作。
2D Orbit Map
3D Orbit Map
Orbit Altitude Analysis Chart
Orbit Inclination Analysis Chart
Orbit Comprehensive Analysis Chart
View Comprehensive Chart